Home   Weather   Uster   Past weeks

Flag for Switzerland Past Weather in Uster, Zurich, Switzerland — Yesterday and Last 2 Weeks

Now
38 °F

Chilly.


Feels Like: 38 °F
Forecast: 36 / 47 °F
Wind: 1 mph from East

Location: Zuerich-Fluntern

Current Time: Apr 30, 2017 at 3:51:49 am

Latest Report: Apr 30, 2017 at 3:00 am


Visibility: N/A

Pressure: 30.01 "Hg

Humidity: 88%

Dew Point: 34 °F

Location of UsterLocation

Past Weather in Uster — Graph

°F

Uster Temperature Yesterday

Maximum temperature yesterday: 53 °F (at 3:00 pm)
Minimum temperature yesterday: 33 °F (at 6:00 am)
Average temperature yesterday: 43 °F

High & Low Weather Summary for the Past Weeks

 TemperatureHumidityPressure
High66 °F (Apr 24, 5:00 pm)100% (Apr 26, 10:00 am)30.57 "Hg (Apr 26, 10:00 am)
Low28 °F (Apr 20, 6:00 am)26% (Apr 21, 6:00 pm)29.74 "Hg (Apr 26, 12:00 am)
Average43 °F73%30.14 "Hg
* Reported Apr 15 2:00 am — Apr 30 2:00 am, Uster, Weather by CustomWeather, © 2017

Note: Actual official high and low records may vary slightly from our data, if they occured in-between our weather recording intervals... More about our weather records

Advertising

Uster Weather History for the Previous 24 Hours

Scroll right to see more
 ConditionsComfort  
Time TempWeatherWind HumidityBarometerVisibility
2:00 am
Sun, Apr 30
39 °FChilly.1 mph84%30.00 "HgN/A
1:00 am40 °FChilly.No wind84%30.01 "HgN/A
12:00 am41 °FQuite cool.1 mph73%30.01 "HgN/A
11:00 pm
Sat, Apr 29
45 °FQuite cool.5 mph61%30.00 "HgN/A
10:00 pm45 °FQuite cool.7 mph61%30.01 "HgN/A
9:00 pm46 °FCool.6 mph57%30.00 "HgN/A
8:00 pm50 °FSunny.5 mph44%29.98 "HgN/A
7:00 pm53 °FCool.5 mph34%29.98 "HgN/A
6:00 pm53 °FCool.6 mph33%29.99 "HgN/A
5:00 pm53 °FCool.3 mph40%29.99 "HgN/A
4:00 pm53 °FCool.6 mph37%30.01 "HgN/A
3:00 pm53 °FCool.5 mph40%30.01 "HgN/A
2:00 pm50 °FPassing clouds.2 mph50%30.03 "HgN/A
1:00 pm51 °FCool.5 mph54%30.04 "HgN/A
12:00 pm45 °FCool.3 mph68%30.08 "HgN/A
11:00 am46 °FCool.5 mph73%30.09 "HgN/A
10:00 am42 °FQuite cool.1 mph83%30.12 "HgN/A
9:00 am37 °FChilly.2 mph87%30.14 "HgN/A
8:00 am35 °FChilly.1 mph92%30.15 "HgN/A
7:00 am33 °FChilly.1 mph97%30.16 "HgN/A
6:00 am33 °FChilly.1 mph96%30.16 "HgN/A
5:00 am34 °FChilly.2 mph95%30.16 "HgN/A
4:00 am34 °FChilly.2 mph96%30.16 "HgN/A
3:00 am35 °FChilly.3 mph95%30.15 "HgN/A
Weather by CustomWeather, © 2017

See weather overviewHow to use our weather pages